Location: Bailleul
(50.3375°N, 2.8513°E)
Time: 14:13:36
(UTC+00:00)

Cosmos 2219 Rocket - Pass Details

Date: 16 June 2021
Orbit: 829 x 846 km, 71.0° (Epoch: 29 July)

Event Time Altitude Azimuth Distance (km) Brightness Sun altitude
Exits shadow 21:24:09 11° 159° (SSE) 2,368 3.9 -9.6°
Maximum altitude 21:28:35 28° 104° (ESE) 1,533 3.2 -10.0°
Drops below altitude 10° 21:33:20 10° 47° (NE) 2,475 4.8 -10.4°
Sets 21:36:05 0° 37° (NE) 3,413 5.7 -10.6°
